EW8375 Weather Reports


Display with metric or nautical units.
time (UTC)temp
F
wind
direction
speed
MPH
gust
MPH
rain 1hr
in
rain 24hr
in
rain mn
in
humidity
%
barometer
mb
20260902081507 64 146 0.0 5.0 0.00 0.00 0.00 50 1004.2
20260902080008 65 141 0.0 1.0 0.00 0.00 0.00 47 1004.0
20260902074612 66 141 0.0 3.0 0.00 0.00 0.00 46 1004.0
20260902073100 67 125 3.0 5.0 0.00 0.00 0.00 45 1004.0
20260902071558 68 106 3.0 5.0 0.00 0.00 0.00 45 1004.2
20260902070055 69 134 2.0 6.0 0.00 0.00 0.00 45 1004.2
20260902064554 67 131 1.0 4.0 0.00 0.01 0.00 48 1004.4
20260902063111 66 129 2.0 4.0 0.00 0.01 0.00 49 1004.4
20260902061553 67 122 2.0 5.0 0.00 0.01 0.00 48 1004.7
20260902054557 66 108 3.0 5.0 0.00 0.01 0.01 49 1004.9
20260902053044 66 115 4.0 5.0 0.00 0.01 0.01 48 1004.8
20260902051550 67 117 4.0 7.0 0.00 0.01 0.01 46 1004.8
20260902050044 68 116 4.0 8.0 0.00 0.01 0.01 45 1004.8
20260902044543 69 118 3.0 6.0 0.00 0.01 0.01 45 1004.9
20260902043104 69 128 3.0 6.0 0.00 0.01 0.01 45 1005.0
20260902041558 69 130 0.0 5.0 0.00 0.01 0.01 45 1004.9
20260902040041 69 111 3.0 5.0 0.00 0.01 0.01 45 1005.1
20260902034548 69 131 1.0 3.0 0.00 0.01 0.01 48 1005.0
20260902033041 69 127 1.0 4.0 0.00 0.01 0.01 48 1004.8
20260902031541 70 132 1.0 2.0 0.00 0.01 0.01 47 1004.8
20260902030041 70 168 0.0 0.0 0.00 0.01 0.01 47 1004.7
20260902024539 70 154 0.0 0.0 0.00 0.05 0.01 46 1004.5
20260902023039 71 181 0.0 2.0 0.00 0.05 0.01 44 1004.2
20260902021538 72 135 0.0 1.0 0.00 0.05 0.01 44 1004.0
20260902020036 73 131 0.0 2.0 0.00 0.05 0.01 43 1003.8
20260902014543 75 150 0.0 1.0 0.00 0.05 0.01 41 1003.5
20260902013039 77 175 0.0 3.0 0.00 0.05 0.01 40 1003.3
20260902011534 78 151 1.0 3.0 0.00 0.05 0.01 38 1003.3
20260902010046 80 148 0.0 2.0 0.00 0.05 0.01 33 1002.9
20260902004535 81 174 0.0 3.0 0.00 0.05 0.01 32 1002.9
20260902003107 82 238 1.0 5.0 0.00 0.05 0.01 29 1003.0
20260902001534 83 178 1.0 6.0 0.00 0.05 0.01 31 1003.1
20260902000034 85 147 0.0 3.0 0.00 0.05 0.01 24 1003.1
20260901234528 83 226 4.0 8.0 0.00 0.05 0.01 29 1003.0
20260901233027 83 164 0.0 6.0 0.00 0.05 0.01 29 1003.1
20260901231528 84 288 4.0 6.0 0.00 0.05 0.01 29 1003.2
20260901230025 84 285 3.0 8.0 0.00 0.05 0.01 30 1003.1
20260901224524 84 218 3.0 7.0 0.00 0.05 0.01 30 1003.3
20260901223024 83 264 7.0 11.0 0.00 0.05 0.01 30 1003.2
20260901221531 82 224 4.0 10.0 0.00 0.05 0.01 33 1003.4
20260901220034 82 195 2.0 7.0 0.00 0.05 0.01 33 1003.6
20260901214518 82 274 4.0 8.0 0.00 0.05 0.01 32 1003.7
20260901213019 83 286 7.0 12.0 0.00 0.05 0.01 30 1003.9
20260901211518 84 269 3.0 7.0 0.00 0.05 0.01 28 1003.9
20260901210016 84 161 1.0 5.0 0.00 0.05 0.01 30 1004.0
20260901204515 84 148 4.0 7.0 0.00 0.05 0.01 28 1004.0
20260901203013 86 137 1.0 7.0 0.00 0.05 0.01 26 1004.1
20260901201511 85 152 4.0 8.0 0.00 0.05 0.01 27 1004.3
20260901200009 85 143 5.0 11.0 0.00 0.05 0.01 26 1004.3
20260901194507 86 154 1.0 9.0 0.00 0.05 0.01 28 1004.5
20260901193006 84 34 4.0 11.0 0.00 0.05 0.01 27 1004.5
20260901191504 84 304 2.0 10.0 0.00 0.05 0.01 29 1004.6
20260901190200 83 347 2.0 6.0 0.00 0.05 0.01 29 1004.9
20260901184557 84 150 2.0 4.0 0.00 0.05 0.01 27 1005.0
20260901183056 83 114 3.0 16.0 0.00 0.05 0.01 30 1005.4
20260901181554 83 150 1.0 6.0 0.00 0.05 0.01 31 1005.5
20260901180050 82 293 5.0 8.0 0.00 0.05 0.01 31 1005.7
20260901174553 81 305 3.0 10.0 0.00 0.05 0.01 33 1005.8
20260901173043 79 297 4.0 8.0 0.00 0.05 0.01 37 1005.9
20260901171548 78 283 6.0 9.0 0.00 0.05 0.01 43 1006.1
20260901170038 76 179 3.0 8.0 0.00 0.05 0.01 56 1006.2
20260901164538 74 237 3.0 7.0 0.00 0.05 0.01 59 1006.3
20260901163059 73 184 1.0 5.0 0.00 0.05 0.01 61 1006.5
20260901161529 71 210 3.0 6.0 0.00 0.05 0.01 64 1006.5
20260901160027 71 264 2.0 4.0 0.00 0.05 0.01 64 1006.5
20260901154534 69 162 0.0 2.0 0.00 0.05 0.01 65 1007.0
20260901153031 68 184 0.0 2.0 0.00 0.05 0.01 67 1007.1
20260901151518 65 133 1.0 2.0 0.00 0.05 0.01 73 1007.1
20260901150016 65 153 0.0 2.0 0.00 0.05 0.01 78 1007.2
20260901144519 65 186 0.0 4.0 0.00 0.05 0.01 73 1007.3
20260901143015 64 165 0.0 3.0 0.00 0.05 0.01 74 1007.2
20260901141517 63 152 0.0 1.0 0.00 0.05 0.01 76 1007.1
20260901140017 62 152 0.0 1.0 0.00 0.05 0.01 76 1007.0
20260901134514 61 158 0.0 1.0 0.00 0.05 0.01 79 1007.0
20260901133010 61 137 0.0 1.0 0.00 0.05 0.01 78 1006.8
20260901131510 61 129 0.0 4.0 0.00 0.05 0.01 77 1006.4
20260901130008 61 131 0.0 3.0 0.00 0.05 0.01 76 1006.3
20260901124509 61 131 1.0 3.0 0.00 0.05 0.01 77 1005.9
20260901123006 61 134 1.0 2.0 0.00 0.05 0.01 79 1005.7
20260901121506 61 167 0.0 1.0 0.00 0.05 0.01 80 1005.7
20260901120004 61 136 2.0 5.0 0.00 0.05 0.01 77 1005.6
20260901114503 61 126 2.0 4.0 0.00 0.05 0.01 79 1005.5
20260901113001 61 119 3.0 5.0 0.00 0.05 0.01 80 1005.6
20260901111610 60 155 0.0 1.0 0.00 0.05 0.01 80 1005.5
20260901110100 61 190 1.0 4.0 0.00 0.05 0.01 79 1005.7
20260901104600 61 114 1.0 4.0 0.00 0.05 0.01 80 1005.8
20260901103057 61 133 0.0 1.0 0.00 0.05 0.01 81 1005.7
20260901101555 62 134 0.0 3.0 0.00 0.05 0.01 79 1005.8
20260901100055 62 127 1.0 2.0 0.00 0.05 0.01 78 1005.9
20260901094553 63 141 0.0 4.0 0.00 0.05 0.01 77 1006.1
20260901093057 63 139 0.0 1.0 0.00 0.05 0.01 78 1006.1
20260901091602 64 138 0.0 4.0 0.00 0.05 0.01 75 1006.2
20260901090056 63 117 3.0 5.0 0.00 0.05 0.01 76 1006.3
20260901084550 63 127 1.0 3.0 0.00 0.05 0.01 79 1006.3
20260901083047 63 124 0.0 2.0 0.00 0.05 0.01 80 1006.5